Theta_e
309 311 314 314 314 314 314 313 312 309 307 306 307 307 306 306 305 307 306 304 308 308 308 307 308 308 309 309 311 310 311 310 311 312 312 312 312 312 312 314 315 315 315 315 316 317 320 325 328 333 325 323 323 328
311 310 314 314 314 314 314 314 313 310 307 306 306 307 306 306 306 305 308 305 305 308 308 306 307 307 308 309 309 309 309 310 310 314 312 312 312 313 313 313 315 315 316 322 318 323 323 324 323 320 320 320 322 325
310 310 312 314 314 314 314 315 314 312 308 306 306 306 305 306 306 305 307 305 307 308 309 309 308 307 307 307 307 310 309 310 310 309 310 312 313 312 313 312 314 315 315 316 319 319 321 321 323 322 320 320 322 324
315 309 310 313 314 314 314 314 314 312 310 308 308 307 306 306 305 305 307 306 307 307 310 308 307 309 308 307 307 308 310 310 310 310 310 310 311 310 311 312 313 313 316 315 317 317 319 320 322 321 322 323 321 325
324 312 309 311 314 315 315 314 314 313 312 311 311 310 310 309 308 305 306 305 305 307 310 309 309 309 309 308 308 307 308 309 309 310 310 311 309 311 311 311 312 311 314 314 314 317 317 318 319 318 320 320 320 321
325 322 309 309 312 314 315 315 314 314 313 311 311 310 311 311 309 307 310 306 305 305 308 311 307 308 309 309 309 308 308 308 309 309 310 309 309 311 313 313 312 313 313 313 313 313 314 313 315 316 320 320 320 323
324 324 318 310 310 311 314 315 315 314 313 313 312 312 311 311 309 310 309 307 305 305 308 311 310 308 308 310 310 309 309 309 308 309 309 309 310 311 313 313 312 312 311 311 312 312 313 313 314 318 317 318 320 325
323 325 324 319 311 310 311 314 315 314 314 313 312 312 311 310 309 309 307 307 306 308 308 311 310 309 307 309 311 310 311 310 310 310 310 311 310 311 312 311 309 309 309 309 310 312 312 312 313 314 316 317 320 324
323 324 325 325 324 315 311 311 314 313 314 313 313 313 311 310 310 310 309 308 306 307 311 312 312 312 306 307 309 310 311 311 311 311 310 309 310 313 309 306 305 306 306 307 309 311 312 313 314 315 315 317 320 323
323 324 324 324 325 324 317 311 314 313 313 313 313 312 312 312 311 309 308 309 308 309 307 313 311 313 308 308 309 309 309 310 312 309 307 308 310 307 306 306 308 308 309 311 307 309 311 312 314 315 315 317 319 322
324 323 324 324 323 315 312 314 315 313 312 313 315 314 313 312 310 309 311 311 312 313 313 314 313 314 309 311 310 309 309 309 312 309 310 310 311 310 308 307 307 306 310 313 313 312 313 314 314 315 315 318 320 321
323 323 323 324 318 310 313 315 314 311 312 314 313 313 313 312 313 314 317 310 308 317 316 316 314 313 311 310 311 309 312 311 313 311 312 311 311 309 310 308 309 305 305 306 309 311 313 314 315 316 317 318 319 318
323 323 322 324 320 314 315 317 317 313 309 313 314 314 315 318 319 321 321 322 320 315 316 316 315 314 314 313 313 313 314 312 311 311 309 309 308 307 310 310 309 308 305 304 304 305 307 309 310 311 310 310 314 312
322 322 322 324 323 320 323 322 312 311 311 314 317 319 321 323 321 321 321 320 319 317 317 317 315 314 314 314 314 314 312 312 310 308 309 309 307 307 308 308 307 308 309 307 306 304 304 305 305 305 304 303 303 303
323 322 323 325 322 320 322 320 312 308 312 315 317 318 324 322 321 320 320 318 317 317 317 317 316 314 313 314 314 313 313 312 310 310 309 308 308 307 307 307 307 305 306 308 309 307 305 306 303 304 303 302 302 302
322 323 324 323 323 323 323 316 310 310 314 313 316 321 323 323 323 323 322 320 317 316 317 317 316 315 313 311 312 312 311 312 312 310 308 308 308 307 307 307 306 305 303 302 303 307 307 306 305 305 302 302 303 301
322 323 322 322 322 323 318 315 311 312 313 316 321 321 321 323 324 324 322 320 317 317 317 315 312 312 312 311 311 312 313 311 309 308 308 309 309 308 307 308 306 304 303 302 302 302 306 308 307 305 304 304 304 303
323 322 323 322 322 319 317 312 312 313 317 318 322 322 324 324 323 323 321 318 318 317 315 316 312 312 311 309 310 311 310 310 309 309 309 310 312 311 308 307 305 304 304 302 301 301 302 306 307 306 305 305 304 304
323 323 323 321 321 318 317 314 314 317 321 323 324 325 324 323 323 322 322 318 318 314 314 314 315 312 310 310 309 310 310 310 310 309 309 312 312 312 309 307 305 305 303 302 301 300 300 302 305 305 305 304 304 302
321 322 321 321 321 318 318 317 315 318 325 325 323 323 324 325 325 324 321 318 316 315 317 318 317 312 310 310 310 309 309 309 308 308 308 308 309 310 309 307 305 304 303 302 301 299 300 301 301 303 304 304 303 303
320 320 321 321 320 317 317 318 320 323 325 327 325 324 325 325 324 324 322 318 317 318 320 319 316 311 311 311 310 309 309 308 309 310 311 310 309 307 307 306 305 303 302 301 300 300 301 302 302 302 302 302 302 301
320 320 320 320 317 317 317 317 316 321 322 321 323 324 325 326 326 325 322 319 320 320 319 319 314 311 311 311 310 310 310 310 311 311 310 309 308 306 306 305 304 303 302 300 299 300 301 301 300 301 300 300 300 300
321 320 320 316 316 316 318 319 322 323 324 322 327 327 327 327 326 322 323 324 323 323 320 318 313 308 312 313 310 310 308 310 311 312 309 308 307 306 305 304 303 302 301 299 299 300 301 298 299 299 299 299 299 299
320 319 316 317 316 316 315 320 323 325 326 326 326 326 326 327 325 325 326 325 325 322 319 314 308 311 314 314 313 312 312 312 314 312 308 306 306 305 305 304 302 301 299 299 299 300 299 299 298 299 298 298 298 298
318 316 314 315 319 320 321 323 323 323 323 322 323 324 328 326 328 327 327 325 323 321 319 315 312 312 315 315 314 314 314 313 315 311 308 306 305 304 303 302 301 300 299 299 299 299 299 298 298 298 298 298 298 298
313 316 317 319 318 318 321 323 324 324 323 324 323 327 326 327 327 326 325 323 322 322 319 316 315 314 315 316 316 316 316 314 313 311 308 306 304 304 303 302 301 299 298 299 299 299 298 298 298 298 298 298 298 299
314 317 317 319 322 320 319 318 318 320 322 324 326 328 328 326 326 326 325 323 321 322 321 318 317 318 318 318 318 317 316 314 313 310 307 305 303 303 302 301 301 300 298 298 298 298 298 298 298 298 298 299 299 299
317 317 319 319 319 318 320 320 322 321 321 322 325 325 326 326 326 325 324 320 319 319 322 320 319 319 320 319 316 314 313 311 311 307 305 303 303 302 301 300 300 298 298 298 298 298 298 298 298 298 299 299 300 300
319 320 319 318 316 317 318 320 321 321 319 322 324 323 323 326 326 326 324 320 316 322 322 321 320 320 318 313 311 309 307 307 306 306 304 303 302 301 300 299 299 298 298 298 297 297 297 298 298 299 299 299 300 300
321 319 320 320 319 320 320 320 321 320 321 320 320 321 322 324 325 320 323 319 319 321 321 320 319 318 314 312 310 309 308 307 307 306 305 303 302 302 300 299 299 299 299 299 299 299 298 298 299 300 300 300 300 300
320 320 321 322 322 322 321 320 319 319 318 318 319 320 320 322 324 322 324 324 322 322 321 319 318 317 315 314 311 310 309 308 307 305 304 303 301 301 299 299 299 299 299 299 299 299 300 300 300 300 301 301 301 301
319 320 319 320 321 321 321 320 321 320 319 319 320 322 324 326 326 326 322 322 322 322 321 319 318 317 316 315 313 312 310 309 309 307 304 302 300 299 299 299 299 299 299 299 300 300 300 301 301 301 301 301 301 301
318 318 318 318 319 321 321 321 322 320 319 321 322 324 324 325 327 326 321 320 321 321 321 320 319 318 315 313 312 311 309 311 310 307 304 302 298 299 299 299 299 299 299 300 300 301 301 301 302 301 301 301 301 301
Wind_Speed
21 21 20 21 22 19 18 18 19 18 15 13 10 8 7 9 9 9 8 8 4 3 3 1 0 2 1 4 4 3 3 3 5 4 3 3 4 3 3 4 2 6 7 8 10 9 10 15 4 3 5 9 15 16
20 20 18 19 20 18 17 18 18 16 13 12 10 9 5 7 8 9 6 9 5 1 3 2 3 4 2 4 7 5 4 4 1 4 1 2 3 2 4 4 5 6 4 6 5 4 5 8 10 3 5 8 12 17
22 19 18 17 18 18 17 16 17 16 13 11 11 10 9 8 7 8 5 12 4 1 3 1 2 2 2 4 3 5 4 3 2 2 5 3 2 4 4 4 4 3 3 6 5 7 3 3 3 6 9 10 13 15
25 19 17 16 17 17 16 16 16 14 12 11 11 11 11 10 10 7 4 10 6 2 5 6 3 3 4 2 2 3 4 4 2 2 3 2 3 2 3 5 7 7 3 5 9 9 8 4 2 10 12 10 14 15
23 22 18 16 15 16 17 16 14 12 11 10 10 11 12 13 14 7 2 6 9 2 4 5 3 6 6 1 3 6 4 2 3 1 2 3 3 4 7 5 8 8 8 8 7 7 6 10 10 16 15 14 15 17
21 23 20 16 14 14 16 16 15 12 10 8 10 11 12 13 14 2 1 5 10 4 2 2 3 5 7 3 4 5 4 2 3 4 3 2 1 4 4 5 4 6 8 13 15 14 14 18 19 17 12 15 15 15
22 21 22 19 15 14 14 15 16 15 9 10 10 10 10 9 6 3 3 3 9 4 1 1 4 3 2 2 3 4 4 2 3 4 3 5 2 3 3 8 6 9 13 17 18 18 21 17 16 9 14 15 14 13
22 23 19 21 18 16 15 14 15 16 14 10 11 11 10 5 3 4 8 7 6 1 1 1 0 0 5 2 2 1 1 2 3 3 2 5 5 3 3 7 18 21 23 25 26 24 26 22 20 20 15 13 13 12
20 22 22 22 20 19 17 15 14 16 16 13 14 10 3 2 2 6 8 3 3 2 1 1 1 1 1 2 1 1 1 2 1 5 4 6 2 1 11 25 30 32 21 22 21 21 20 21 21 18 16 13 12 11
18 21 24 25 24 21 18 15 12 15 15 9 7 4 2 4 13 4 2 1 2 0 0 1 4 2 3 1 2 0 2 3 2 1 1 1 2 12 20 23 25 30 30 26 28 27 27 26 22 20 17 13 11 8
18 20 22 25 26 21 12 7 10 15 12 4 2 2 8 10 3 1 2 2 1 2 5 2 2 3 5 2 2 0 2 3 2 3 1 1 3 11 12 15 23 34 31 6 21 23 19 19 17 17 16 11 9 6
19 21 22 24 22 12 6 8 12 14 9 7 6 7 5 2 2 3 2 2 3 1 3 2 2 2 5 4 3 5 2 2 3 6 3 0 4 14 10 18 11 26 35 37 30 18 9 5 10 12 12 9 11 10
19 21 22 21 16 10 10 15 18 17 15 5 1 2 3 3 2 3 3 1 2 6 6 5 4 4 4 6 4 4 5 1 1 3 1 2 9 13 13 9 14 10 20 27 27 30 29 28 21 20 18 12 15 14
20 21 22 21 17 13 17 23 21 14 5 3 3 3 5 4 5 4 1 2 4 3 4 4 2 4 2 4 1 3 2 3 2 1 2 5 9 11 12 13 16 17 12 12 21 23 22 24 30 28 24 23 25 25
19 20 21 15 12 16 23 22 18 6 4 4 4 4 7 8 5 7 3 3 4 5 6 4 3 4 3 2 2 1 3 2 1 1 1 7 4 8 10 11 13 14 14 14 10 14 18 14 22 20 20 14 22 23
18 19 15 18 20 22 19 18 10 4 3 4 6 6 9 7 8 2 6 7 7 8 4 3 2 3 3 2 4 2 1 2 3 3 4 5 1 2 5 8 10 12 14 14 12 10 8 12 12 12 17 19 13 16
16 11 15 19 21 22 15 11 5 4 4 5 7 11 14 12 9 7 4 4 10 8 3 2 3 1 2 3 1 3 3 3 6 5 5 3 1 1 0 3 6 7 11 13 13 10 9 5 7 9 12 8 9 11
12 10 16 20 21 16 9 3 3 4 7 10 7 7 9 11 9 7 5 8 9 7 3 1 2 4 3 2 2 3 5 6 5 5 3 2 4 4 2 0 2 5 7 10 10 9 7 5 4 5 6 5 5 5
13 13 17 18 15 9 4 3 4 5 9 8 11 11 10 10 7 7 5 8 9 5 3 3 3 3 3 3 2 6 6 7 7 7 5 5 5 4 4 2 0 2 5 8 8 8 6 3 2 2 2 2 2 3
15 16 16 12 14 3 3 4 5 6 6 3 6 8 7 7 4 4 6 8 9 5 5 4 3 2 3 4 6 9 9 8 6 5 4 4 2 3 4 2 2 3 6 8 8 8 4 2 3 2 1 3 4 4
13 11 12 16 11 9 6 4 6 7 7 6 5 4 5 5 7 6 7 8 9 6 6 7 4 7 6 8 9 11 11 10 6 2 3 1 3 3 3 2 1 4 6 7 7 4 5 5 4 4 3 2 3 3
12 14 15 13 5 4 6 8 8 7 5 9 6 5 6 5 5 4 5 8 6 11 8 7 10 13 12 12 12 13 10 9 5 3 4 3 4 4 3 2 2 3 6 6 3 1 2 3 3 4 4 3 3 2
13 13 6 5 5 5 6 7 7 6 4 2 2 3 3 2 1 4 4 5 4 5 7 9 14 16 13 14 14 13 11 8 5 3 3 4 4 4 4 3 2 3 5 3 1 1 0 2 4 4 5 5 5 5
11 4 3 4 9 4 4 5 6 5 4 4 3 3 1 1 3 4 3 3 4 7 11 14 18 17 13 13 12 11 10 8 6 4 5 4 4 5 4 4 2 2 2 1 1 1 1 2 3 4 5 5 5 6
4 5 5 7 5 4 4 4 8 6 7 7 4 5 3 3 3 3 2 1 5 10 14 17 17 17 13 13 13 11 12 10 7 7 7 5 4 6 5 4 3 2 2 2 1 1 0 1 2 3 4 5 7 7
3 7 9 7 5 5 4 3 5 4 6 3 4 2 4 3 3 2 2 3 6 12 16 19 18 16 13 10 10 11 12 12 9 8 7 6 6 6 5 5 5 4 4 4 3 2 2 2 3 4 5 7 9 8
4 7 7 8 4 2 1 4 12 9 7 4 3 5 3 3 2 1 1 2 4 9 16 17 16 12 9 9 9 9 10 10 10 6 6 6 6 5 5 5 6 5 6 5 4 3 4 5 5 6 7 7 8 11
8 5 7 8 5 5 2 2 5 5 4 3 2 2 2 1 3 2 1 2 7 11 13 14 12 10 8 9 10 11 11 11 10 7 7 6 7 5 4 4 6 10 6 5 4 3 4 5 5 5 7 9 12 14
7 8 9 8 4 7 9 8 7 10 6 4 2 2 2 2 1 4 2 6 10 10 15 15 14 12 12 13 13 12 11 11 11 11 9 7 8 7 7 6 6 7 6 5 5 4 4 3 4 6 9 12 14 16
7 12 8 8 5 7 10 14 9 8 11 11 11 11 9 8 7 9 6 10 7 8 11 13 14 15 17 17 15 14 13 11 8 6 6 7 7 8 9 9 8 7 6 5 4 5 6 5 9 11 13 14 16 19
4 10 8 10 7 10 11 12 12 11 13 14 12 11 11 9 7 7 7 8 8 9 11 14 13 14 16 16 16 16 14 13 11 9 5 5 7 9 9 9 8 7 6 5 4 4 5 7 10 12 15 17 19 20
7 10 5 4 6 5 4 3 4 8 9 12 11 8 6 5 5 4 5 9 9 10 12 13 14 14 13 12 12 12 11 10 11 12 10 6 7 8 9 8 8 7 6 5 4 4 6 9 13 16 17 18 19 21
7 8 8 5 5 5 7 6 4 4 7 8 8 9 8 6 2 4 6 8 8 8 10 12 12 9 14 11 10 11 11 12 8 8 10 7 6 8 9 7 7 7 5 4 3 5 9 12 15 16 18 20 21 23
Wind_Direction
0 0 5 6 5 10 13 16 18 18 26 28 24 27 28 31 39 58 36 42 55 5 65 160 93 357 24 26 40 343 129 352 291 243 229 197 273 140 262 51 251 204 211 205 240 235 228 6 57 344 7 337 331 333
359 359 0 6 5 6 8 11 15 14 13 17 18 19 26 33 33 39 18 7 19 39 12 234 232 248 279 343 357 73 90 114 325 277 342 274 208 191 337 220 176 244 309 344 328 56 55 74 92 52 2 342 334 331
359 357 355 1 2 4 3 5 12 13 9 13 23 31 33 29 36 35 17 16 15 342 153 159 66 329 331 263 256 318 80 83 100 331 333 336 306 315 257 234 325 190 291 270 324 129 44 334 102 31 0 345 341 343
359 355 352 353 357 359 357 358 4 9 14 19 26 29 26 24 10 6 11 12 16 311 295 95 51 29 1 57 174 183 78 79 78 265 269 331 309 6 306 335 291 352 331 281 271 275 311 232 38 347 345 340 342 346
357 356 350 348 349 355 356 351 355 4 14 18 15 16 15 9 1 354 14 15 25 43 341 94 107 31 22 145 129 173 173 11 0 261 248 38 331 284 249 280 261 242 277 270 276 41 326 306 317 322 322 330 332 332
349 356 353 346 342 343 351 351 346 349 358 358 360 358 354 357 357 28 301 342 8 17 261 195 103 41 30 86 125 155 186 262 298 312 349 331 334 308 293 293 336 291 279 278 283 291 285 283 292 299 296 318 323 329
344 349 356 350 339 336 336 345 345 341 326 341 340 338 333 336 359 20 3 322 1 49 323 160 124 19 18 242 167 167 187 212 309 321 284 308 324 274 266 263 305 280 276 276 274 277 275 272 270 270 291 303 315 314
342 347 348 354 345 333 330 328 338 339 330 323 336 328 321 308 315 10 336 344 7 18 31 134 125 79 8 330 179 275 249 242 213 273 242 314 303 285 262 293 315 301 291 279 268 263 263 267 267 269 277 289 302 302
337 340 343 341 342 334 324 322 321 334 335 316 328 328 326 7 343 317 328 4 26 114 299 329 71 55 56 356 10 14 348 295 294 22 21 342 1 302 310 311 301 295 274 269 268 264 262 254 255 253 264 268 278 291
327 328 334 339 334 327 319 315 311 329 335 321 329 350 314 289 328 329 31 19 356 100 108 280 111 109 166 177 190 190 26 12 29 13 283 10 300 266 299 324 356 348 312 280 253 250 247 250 245 245 251 249 263 281
329 332 333 334 333 324 314 324 325 330 334 332 301 273 281 317 349 331 295 275 265 248 190 232 280 102 179 168 133 145 169 180 196 124 282 352 284 341 350 346 12 3 24 285 247 234 238 236 236 240 239 247 258 232
322 326 331 334 341 343 338 340 340 336 322 284 272 281 292 272 256 256 222 185 217 238 199 253 131 184 161 178 156 187 265 190 216 153 232 328 320 350 350 356 19 26 28 35 51 65 91 194 236 226 240 236 180 172
316 322 328 327 330 334 327 326 322 322 325 320 269 249 219 202 284 254 307 108 308 180 198 195 177 184 170 218 205 193 230 98 166 217 4 32 15 359 2 3 17 29 49 40 43 50 51 71 91 99 83 81 139 122
309 315 321 317 306 301 322 331 323 307 300 220 229 252 229 186 234 215 156 335 310 246 186 196 158 227 180 206 271 247 81 258 265 269 53 60 39 20 20 21 22 26 33 60 54 53 53 55 65 69 73 73 77 89
307 313 322 325 313 302 321 324 319 276 231 228 219 242 221 250 264 265 255 213 201 175 168 173 192 236 166 204 222 232 219 261 205 262 107 93 54 32 31 28 24 23 21 26 57 69 72 68 64 71 72 69 69 70
306 313 324 329 329 326 320 324 308 264 243 221 230 253 241 266 282 216 258 238 189 168 179 218 193 231 215 235 209 233 235 223 209 173 132 140 122 66 39 33 30 31 27 25 24 31 96 85 78 77 67 81 80 74
306 309 326 333 330 327 332 330 290 244 238 228 242 244 258 285 284 313 298 213 178 170 252 182 223 163 103 229 229 177 213 162 138 146 141 146 206 210 35 26 30 28 25 21 22 25 28 92 98 92 98 102 83 82
291 306 325 333 329 325 316 317 255 249 250 242 248 280 238 263 286 287 240 192 177 203 209 246 149 210 236 231 221 162 173 148 160 154 175 206 240 226 215 75 24 20 21 19 15 19 28 42 72 101 104 112 108 75
288 305 323 333 332 317 283 252 234 264 249 259 262 267 262 268 262 244 223 205 201 196 181 205 235 236 229 233 193 159 165 174 178 188 211 245 261 232 204 202 293 6 13 11 14 12 4 21 39 80 77 50 360 15
292 299 307 314 316 269 271 254 250 259 265 275 257 266 263 271 244 232 203 194 195 197 212 222 237 238 215 175 172 163 162 161 167 180 196 212 246 197 198 215 288 330 348 351 355 7 38 63 40 8 304 341 342 353
287 301 311 313 283 224 250 242 245 251 279 263 274 268 274 251 245 234 214 195 198 228 227 223 197 166 149 152 156 160 163 164 175 243 1 240 190 198 204 216 282 324 343 349 354 19 48 59 57 54 46 11 350 353
275 307 309 292 236 248 259 232 236 283 266 267 274 257 258 257 249 219 185 201 244 239 230 196 180 168 160 157 160 159 169 186 206 243 279 208 187 199 214 230 264 321 338 342 351 53 72 37 30 22 25 28 22 335
283 302 275 221 231 237 260 245 243 228 239 221 229 243 222 221 195 174 233 232 252 217 192 177 177 171 163 164 171 183 194 201 212 234 220 202 201 194 197 203 239 307 331 334 14 140 358 5 358 3 349 350 340 334
275 235 227 230 209 246 244 246 257 267 239 240 228 268 226 218 195 235 257 241 193 175 173 175 174 171 172 182 190 199 204 211 220 206 190 187 200 203 201 214 227 296 324 183 148 144 319 318 349 344 347 358 359 354
205 216 203 237 221 234 234 244 235 238 250 256 259 257 172 198 234 239 262 185 182 181 176 175 180 187 191 200 206 206 200 200 216 210 204 196 205 192 195 204 218 232 212 188 197 254 288 327 331 333 338 343 344 338
195 207 199 208 203 207 244 306 320 345 312 264 221 151 180 218 231 241 214 183 189 185 184 186 188 195 207 209 204 206 214 207 207 206 203 197 200 202 213 221 224 230 209 199 208 221 265 292 306 315 318 322 328 334
218 221 214 219 224 193 31 276 256 268 277 251 221 175 216 235 236 118 234 227 177 180 190 191 193 194 203 202 199 194 191 183 183 201 194 183 191 201 218 230 223 219 202 188 201 235 279 291 290 298 305 311 316 319
227 228 210 187 191 178 181 240 270 250 237 247 235 239 269 272 12 31 302 227 170 167 175 185 187 190 190 180 173 166 161 171 181 162 153 166 180 187 193 191 190 206 183 193 212 254 293 296 286 299 308 313 316 319
223 211 194 193 180 206 216 209 233 235 249 245 264 270 280 267 306 329 290 182 186 172 173 174 171 169 160 156 154 156 167 169 170 173 182 191 199 209 201 190 199 190 199 222 258 245 270 267 275 295 308 314 319 321
224 195 205 196 205 222 222 207 235 245 246 260 267 274 279 285 288 287 222 208 195 191 193 191 187 181 179 174 170 173 177 178 185 194 204 213 217 211 195 191 192 198 209 218 235 258 291 309 313 313 313 314 318 321
208 189 219 226 242 250 255 249 253 255 247 253 257 261 278 291 292 254 218 214 202 189 183 182 181 187 190 190 187 181 184 190 195 196 187 181 181 185 182 185 188 193 202 214 232 251 277 299 310 315 316 317 319 320
209 209 206 230 250 263 237 224 247 237 224 225 242 240 248 255 252 223 213 202 191 195 196 190 192 195 192 196 194 188 187 191 196 210 212 179 176 176 175 176 183 191 200 218 235 264 291 306 315 318 318 318 320 323
206 204 209 255 262 236 199 192 256 254 219 223 235 239 248 260 243 203 208 187 182 190 193 192 185 184 188 180 180 184 173 188 189 201 207 205 194 171 168 174 184 189 203 214 254 292 309 318 321 322 321 321 320 321